This is the latest recevied weather packets stored in our database for station/object W9GWP. If no packets are shown the sender has not sent any weather packets the latest 10 day(s).
| Time | Temp. | Humidity | Pressure | Rain* | Wind** | Luminosity | Snow |
|---|---|---|---|---|---|---|---|
| 1777690695 | 0° C | 84% | 1048.3 hPa | 0 mm | - | 0 W/m² | - |
| 1777689794 | 1.11° C | 83% | 1048.1 hPa | 0 mm | - | 0 W/m² | - |
| 1777688892 | 1.11° C | 80% | 1048.2 hPa | 0 mm | - | 0 W/m² | - |
| 1777687988 | 1.67° C | 77% | 1048.1 hPa | 0 mm | - | 0 W/m² | - |
| 1777687086 | 2.78° C | 74% | 1047.9 hPa | 0 mm | - | 0 W/m² | - |
| 1777686183 | 2.78° C | 73% | 1047.8 hPa | 0 mm | - | 0 W/m² | - |
| 1777685283 | 2.78° C | 72% | 1047.6 hPa | 0 mm | - | 0 W/m² | - |
| 1777684380 | 3.33° C | 72% | 1047.8 hPa | 0 mm | - | 0 W/m² | - |
| 1777683477 | 3.89° C | 71% | 1047.8 hPa | 0 mm | - | 0 W/m² | - |
| 1777682573 | 3.89° C | 70% | 1047.7 hPa | 0 mm | - | 2 W/m² | - |
| 1777681669 | 3.89° C | 70% | 1047.7 hPa | 0 mm | - | 10 W/m² | - |
| 1777680768 | 4.44° C | 68% | 1047.4 hPa | 0 mm | - | 21 W/m² | - |
| 1777679864 | 5° C | 71% | 1047.4 hPa | 0 mm | - | 35 W/m² | - |
| 1777678959 | 5° C | 72% | 1047.4 hPa | 0 mm | - | 49 W/m² | - |
| 1777678056 | 5° C | 71% | 1047.6 hPa | 0 mm | - | 114 W/m² | - |
| 1777677155 | 4.44° C | 81% | 1047.2 hPa | 0 mm | - | 72 W/m² | - |
| 1777676254 | 4.44° C | 80% | 1047.3 hPa | 0 mm | - | 77 W/m² | - |
| 1777675351 | 4.44° C | 84% | 1047.2 hPa | 0 mm | - | 137 W/m² | - |
| 1777674452 | 4.44° C | 83% | 1047.3 hPa | 0.51 mm | - | 79 W/m² | - |
| 1777673548 | 5.56° C | 75% | 1047 hPa | 0 mm | - | 31 W/m² | - |
| 1777672646 | 6.11° C | 71% | 1046.9 hPa | 0 mm | - | 49 W/m² | - |
| 1777671745 | 6.11° C | 73% | 1046.8 hPa | 0 mm | - | 141 W/m² | - |
| 1777670839 | 6.11° C | 72% | 1046.8 hPa | 0 mm | - | 254 W/m² | - |
| 1777669936 | 6.67° C | 72% | 1046.8 hPa | 0 mm | - | 239 W/m² | - |
| 1777669032 | 6.11° C | 77% | 1047.1 hPa | 0 mm | - | 263 W/m² | - |
* Rain latest hour (hover to see other rain measurements)
** Current wind speed in m/s (hover to see current wind gust speed)